DW7220 Weather Reports


Display with metric or nautical units.
time (UTC)temp
F
wind
direction
speed
MPH
gust
MPH
rain 1hr
in
rain 24hr
in
rain mn
in
humidity
%
barometer
mb
20260509114610 75 211 0.0 3.0 0.00 0.00 0.00 97 1013.2
20260509113018 74 138 0.0 0.0 0.00 0.00 0.00 97 1013.1
20260509111551 73 250 0.0 0.0 0.00 0.00 0.00 97 1013.0
20260509110112 73 259 0.0 0.0 0.00 0.00 0.00 97 1012.9
20260509104511 73 245 0.0 0.0 0.00 0.00 0.00 97 1012.8
20260509103025 73 215 0.0 0.0 0.00 0.00 0.00 97 1012.8
20260509101532 73 214 0.0 0.0 0.00 0.00 0.00 97 1012.6
20260509100045 73 118 0.0 0.0 0.00 0.00 0.00 97 1012.5
20260509094609 74 148 0.0 4.0 0.00 0.00 0.00 96 1012.5
20260509093024 74 120 2.0 3.0 0.00 0.00 0.00 96 1012.6
20260509091549 74 138 0.0 1.0 0.00 0.00 0.00 96 1012.7
20260509090059 74 290 0.0 0.0 0.00 0.00 0.00 96 1012.8
20260509084607 74 290 0.0 0.0 0.00 0.00 0.00 96 1012.9
20260509083121 73 290 0.0 0.0 0.00 0.00 0.00 96 1012.9
20260509081502 73 286 0.0 0.0 0.00 0.00 0.00 96 1012.9
20260509080019 73 257 0.0 0.0 0.00 0.00 0.00 96 1012.8
20260509074553 73 257 0.0 0.0 0.00 0.00 0.00 96 1012.8
20260509073110 73 218 0.0 0.0 0.00 0.00 0.00 95 1012.8
20260509071509 74 185 0.0 1.0 0.00 0.00 0.00 95 1012.7
20260509070035 74 211 0.0 3.0 0.00 0.00 0.00 95 1012.9
20260509064539 74 184 0.0 2.0 0.00 0.00 0.00 95 1012.9
20260509063103 74 257 0.0 2.0 0.00 0.00 0.00 95 1012.9
20260509061509 74 219 0.0 4.0 0.00 0.00 0.00 94 1013.2
20260509060028 74 235 1.0 4.0 0.00 0.00 0.00 94 1013.2
20260509054537 74 240 1.0 4.0 0.00 0.00 0.00 93 1013.4
20260509053109 75 262 1.0 7.0 0.00 0.00 0.00 93 1013.5
20260509051613 75 209 0.0 7.0 0.00 0.00 0.00 92 1013.5
20260509050014 76 198 1.0 4.0 0.00 0.00 0.00 91 1013.6
20260509044523 77 247 3.0 6.0 0.00 0.00 0.00 91 1013.8
20260509043056 77 166 2.0 6.0 0.00 0.00 0.00 90 1013.5
20260509041502 78 122 3.0 9.0 0.00 0.00 0.00 89 1013.5
20260509040028 78 127 4.0 9.0 0.00 0.00 0.00 89 1013.6
20260509034546 78 103 5.0 9.0 0.00 0.00 0.00 89 1013.6
20260509033135 78 110 3.0 6.0 0.00 0.00 0.00 89 1013.7
20260509031505 78 127 4.0 9.0 0.00 0.00 0.00 89 1013.7
20260509030022 78 120 5.0 8.0 0.00 0.00 0.00 89 1013.7
20260509024555 78 113 3.0 8.0 0.00 0.00 0.00 89 1013.7
20260509023117 78 108 4.0 10.0 0.00 0.00 0.00 89 1013.6
20260509021519 78 118 4.0 8.0 0.00 0.00 0.00 89 1013.6
20260509014612 78 137 4.0 7.0 0.00 0.00 0.00 89 1013.3
20260509013018 79 120 3.0 6.0 0.00 0.00 0.00 89 1013.3
20260509011546 79 112 4.0 6.0 0.00 0.00 0.00 88 1013.2
20260509010104 79 126 3.0 8.0 0.00 0.00 0.00 88 1013.2
20260509004509 79 117 3.0 8.0 0.00 0.00 0.00 88 1013.0
20260509003033 79 110 3.0 8.0 0.00 0.00 0.00 87 1012.9
20260509001545 79 112 6.0 10.0 0.00 0.00 0.00 87 1012.7
20260509000106 79 113 4.0 8.0 0.00 0.00 0.00 86 1012.6
20260508234523 80 101 6.0 10.0 0.00 0.00 0.00 85 1012.2
20260508233046 80 122 5.0 9.0 0.00 0.00 0.00 84 1012.2
20260508231550 80 99 5.0 11.0 0.00 0.00 0.00 84 1012.0
20260508230106 80 99 5.0 11.0 0.00 0.00 0.00 84 1012.0
20260508224517 80 86 6.0 12.0 0.00 0.00 0.00 84 1011.8
20260508223024 81 81 8.0 12.0 0.00 0.00 0.00 83 1011.7
20260508221545 81 101 7.0 13.0 0.00 0.00 0.00 82 1011.8
20260508214504 81 94 8.0 13.0 0.00 0.00 0.00 82 1012.0
20260508213022 81 114 8.0 13.0 0.00 0.00 0.00 80 1011.9
20260508211541 81 82 9.0 13.0 0.00 0.00 0.00 81 1012.1
20260508210105 82 65 8.0 13.0 0.00 0.00 0.00 79 1012.2
20260508204519 81 86 11.0 14.0 0.00 0.00 0.00 80 1012.4
20260508203031 82 94 5.0 13.0 0.00 0.00 0.00 80 1012.4
20260508201551 82 74 5.0 14.0 0.00 0.00 0.00 80 1012.4
20260508200004 82 76 7.0 12.0 0.00 0.00 0.00 78 1012.8
20260508194525 82 55 8.0 15.0 0.00 0.00 0.00 78 1013.1
20260508193051 82 77 7.0 15.0 0.00 0.00 0.00 78 1013.3
20260508191601 82 17 6.0 14.0 0.00 0.00 0.00 77 1013.4
20260508190006 82 66 5.0 15.0 0.00 0.00 0.00 77 1013.7
20260508184526 82 41 9.0 15.0 0.00 0.00 0.00 77 1013.9
20260508183045 82 110 7.0 13.0 0.00 0.00 0.00 79 1013.9
20260508181605 82 51 6.0 12.0 0.00 0.00 0.00 76 1014.1
20260508180007 82 57 8.0 14.0 0.00 0.00 0.00 77 1014.2
20260508174531 82 52 8.0 15.0 0.00 0.00 0.00 77 1014.3
20260508173035 82 107 4.0 15.0 0.00 0.00 0.00 78 1014.4
20260508171557 82 52 8.0 15.0 0.00 0.00 0.00 76 1014.5
20260508170010 82 43 9.0 14.0 0.00 0.00 0.00 74 1014.8
20260508164519 83 30 7.0 13.0 0.00 0.00 0.00 74 1014.8
20260508163058 82 47 7.0 13.0 0.00 0.00 0.00 73 1014.9
20260508161613 82 41 5.0 13.0 0.00 0.00 0.00 76 1015.2
20260508160021 83 46 7.0 11.0 0.00 0.00 0.00 72 1015.3
20260508154548 83 6 5.0 12.0 0.00 0.00 0.00 74 1015.4
20260508153012 82 45 3.0 11.0 0.00 0.00 0.00 77 1015.5
20260508151522 83 105 1.0 4.0 0.00 0.00 0.00 71 1015.4
20260508150051 83 294 2.0 7.0 0.00 0.00 0.00 71 1015.5
20260508144601 82 4 6.0 8.0 0.00 0.00 0.00 73 1015.5
20260508143018 81 13 1.0 7.0 0.00 0.00 0.00 76 1015.5
20260508141531 81 312 3.0 8.0 0.00 0.00 0.00 76 1015.5
20260508140044 80 328 3.0 7.0 0.00 0.00 0.00 77 1015.6
20260508134602 79 300 3.0 8.0 0.00 0.00 0.00 79 1015.5
20260508133010 79 342 1.0 4.0 0.00 0.00 0.00 80 1015.5
20260508131529 78 262 0.0 4.0 0.00 0.00 0.00 81 1015.4
20260508130055 76 255 1.0 4.0 0.00 0.00 0.00 82 1015.3
20260508124613 75 243 2.0 4.0 0.00 0.00 0.00 84 1015.4
20260508123023 74 284 0.0 3.0 0.00 0.00 0.00 84 1015.3
20260508121546 72 295 2.0 5.0 0.00 0.00 0.00 87 1015.3
20260508120112 71 269 1.0 4.0 0.00 0.00 0.00 88 1015.2